Probability
0 0 0 0 0 0 0 0 0 0 0 0 0 0 0 0 0 0 0 0 0 0 0 0 0 0 0 0 0 0 0 0 0 0 0 0 0 0 0 0 0 0 0
0 0 0 0 0 0 0 0 0 0 0 0 0 0 0 0 0 0 0 0 0 0 0 0 0 0 0 0 0 0 0 0 0 0 0 0 0 0 0 0 0 0 0
0 0 0 0 0 0 0 0 0 0 0 0 0 0 0 0 0 0 0 0 0 0 0 0 0 0 0 0 0 0 0 0 0 0 0 0 0 0 0 0 0 0 0
0 0 0 0 0 0 0 0 0 0 0 0 0 0 0 0 0 0 0 0 0 0 0 0 0 0 0 0 0 0 0 0 0 0 0 0 0 0 0 0 0 0 0
0 0 0 0 0 1 1 1 0 0 0 0 0 0 0 0 0 0 0 0 0 0 0 0 0 0 0 0 0 0 0 0 0 0 0 0 0 0 0 0 0 0 0
0 0 0 0 0 1 2 2 1 1 0 0 0 0 0 0 0 0 0 0 0 0 0 0 0 0 0 0 0 0 0 0 0 0 0 0 0 0 0 0 0 0 0
0 0 0 0 0 1 2 3 3 2 1 0 0 0 0 0 0 0 0 0 0 0 0 0 0 0 0 0 0 1 1 1 0 0 0 0 0 0 0 0 0 0 0
0 0 0 0 0 0 1 3 3 2 1 0 0 0 0 0 0 0 0 0 0 0 0 0 0 0 0 0 0 1 2 2 1 0 0 0 0 0 0 0 0 0 0
0 0 0 0 0 1 1 3 3 2 1 0 0 0 0 0 0 0 0 0 0 0 0 0 0 0 0 0 0 1 2 2 1 0 0 0 0 0 0 0 0 0 0
0 0 0 0 1 2 3 3 3 1 0 0 0 0 0 0 0 0 0 0 0 0 0 0 0 0 0 0 0 0 1 1 0 0 0 0 0 0 0 0 0 0 0
0 0 0 0 1 2 3 3 2 1 0 0 0 0 0 0 0 0 0 0 0 0 0 0 0 0 0 0 0 0 0 0 0 0 0 0 0 0 0 0 0 0 0
0 0 0 0 1 1 2 2 1 0 0 0 0 0 0 0 0 0 0 0 0 0 0 0 0 0 0 0 0 0 0 0 0 0 0 0 0 0 0 0 0 0 0
0 0 0 0 0 1 2 2 1 0 0 0 0 0 0 0 0 0 0 0 0 0 0 0 0 0 0 0 0 0 0 0 0 0 0 0 0 0 0 0 0 0 0
0 0 0 0 0 1 2 2 1 0 0 0 0 0 0 0 0 0 0 0 0 0 0 0 0 0 0 0 0 0 0 0 0 0 0 0 0 0 0 0 0 0 0
0 0 0 0 0 1 2 2 1 0 0 0 0 0 0 0 0 0 0 0 0 0 0 0 0 0 0 0 0 0 0 0 0 0 0 0 0 0 0 0 0 0 0
0 0 0 0 0 1 2 2 1 0 0 0 0 0 0 0 0 0 0 0 0 0 0 0 0 0 0 0 0 0 0 0 0 0 0 0 0 0 0 0 0 0 0
0 0 0 0 0 0 1 1 0 0 0 0 0 0 0 0 0 0 0 0 0 0 0 0 0 0 0 0 0 0 0 0 0 0 0 0 0 0 0 0 0 0 1
0 0 0 0 0 0 0 0 0 0 0 0 0 0 0 0 0 0 0 0 0 0 0 0 0 0 0 0 0 0 0 0 0 0 0 0 0 0 0 0 0 0 1
0 0 0 0 0 0 0 0 0 0 0 0 0 0 0 0 0 0 0 0 0 0 0 0 0 0 0 0 0 0 0 0 0 0 0 0 0 0 0 0 0 0 1
0 0 0 0 0 0 0 0 0 0 0 0 0 0 0 0 0 0 0 0 0 0 0 0 0 0 0 0 0 0 0 0 0 0 0 0 0 0 0 0 0 0 0
0 0 0 0 0 0 0 0 0 0 0 0 0 0 0 0 0 0 0 0 0 0 0 0 0 0 0 0 0 0 0 0 0 0 0 0 0 0 0 0 0 0 0
0 0 0 0 0 0 0 0 0 0 0 0 0 0 0 0 0 0 0 0 0 0 0 0 0 0 0 0 0 0 0 0 0 0 0 0 0 0 0 0 0 0 0
0 0 0 0 0 0 0 0 0 0 0 0 0 0 0 0 0 0 0 0 0 0 0 0 0 0 0 0 0 0 0 0 0 0 0 0 0 0 0 0 0 0 0
0 0 0 0 0 0 0 0 0 0 0 0 0 0 0 0 0 0 0 0 0 0 0 0 0 0 0 0 0 0 0 0 0 0 0 0 0 0 0 0 0 0 1
0 0 0 0 0 0 0 0 0 0 0 0 0 0 0 0 0 0 0 0 0 0 0 0 0 0 0 0 0 0 0 0 0 0 0 0 0 0 0 0 0 0 1
0 0 0 0 0 0 0 0 0 0 0 0 0 0 0 0 0 0 0 0 0 0 0 0 0 0 0 0 0 0 0 0 0 0 0 0 0 0 0 0 0 0 1
Wind_Speed
2 3 10 10 10 11 11 11 11 11 11 11 11 11 11 10 10 9 9 8 8 8 8 8 8 8 8 8 7 7 7 7 7 6 6 6 6 6 6 7 6 4 7
6 5 11 11 11 11 11 11 11 11 11 11 10 10 10 10 9 9 8 8 8 7 7 7 7 7 7 7 6 6 6 6 6 6 5 4 5 5 6 6 6 4 7
8 6 8 11 11 11 11 11 11 11 11 10 10 9 9 9 8 8 7 7 7 7 7 6 6 6 6 6 6 6 6 7 6 5 5 2 2 4 5 6 6 7 7
9 6 7 11 11 11 11 11 10 10 10 9 9 8 8 8 8 7 7 7 7 6 6 6 6 5 5 5 5 5 6 6 6 5 3 1 0 4 5 5 6 6 7
8 6 8 12 12 11 11 10 10 9 9 8 8 7 7 7 7 7 7 6 6 6 5 5 5 5 4 4 5 5 5 6 6 5 2 1 0 3 5 5 5 6 6
8 6 8 12 12 11 10 10 9 8 8 7 7 6 6 6 6 6 6 5 5 5 4 4 4 4 4 4 4 5 5 6 5 2 2 1 0 3 5 5 5 5 5
7 6 7 12 12 11 10 9 8 8 7 6 5 5 5 4 4 4 4 4 4 4 4 4 4 4 4 4 5 5 6 6 3 1 1 1 1 4 5 5 5 4 5
9 6 7 11 12 11 10 9 8 7 6 4 3 3 2 2 2 2 2 2 3 3 4 4 4 5 5 5 5 6 6 6 3 3 2 1 3 4 5 5 4 4 4
8 6 5 5 7 9 9 8 7 6 4 3 1 0 1 1 2 2 3 3 3 3 4 5 5 5 6 6 6 6 7 6 3 1 2 1 3 4 5 5 4 4 4
6 6 5 4 3 3 4 7 6 5 4 2 1 2 2 3 4 4 4 5 5 4 5 6 6 7 7 8 8 8 7 5 2 2 1 2 3 4 5 5 4 4 4
5 4 5 4 4 3 3 4 4 3 2 1 2 3 3 2 3 3 4 5 5 5 6 7 7 8 8 8 9 9 6 1 1 2 2 4 4 4 5 5 5 4 4
5 5 5 5 5 4 3 2 0 0 1 1 1 2 2 1 2 2 3 4 5 5 6 7 8 7 5 3 5 6 2 1 1 2 2 5 4 4 5 5 5 5 5
5 5 5 5 5 4 2 2 1 0 0 1 1 1 1 2 2 2 2 3 4 5 3 5 5 3 3 3 2 2 2 1 1 1 2 5 4 5 5 5 5 6 6
5 5 5 5 4 3 3 2 2 1 0 1 2 2 2 2 2 2 1 2 2 2 2 3 2 3 3 3 2 2 2 1 1 1 2 4 4 5 5 5 5 6 7
5 5 4 4 4 3 3 2 2 1 1 1 2 2 2 2 2 2 2 2 3 2 2 3 3 4 4 4 3 2 1 1 1 1 1 3 3 4 4 5 5 5 7
5 5 4 4 4 4 3 2 2 1 1 2 2 2 3 2 2 2 2 3 3 2 2 2 3 3 3 3 4 3 2 1 0 1 1 1 3 3 3 4 5 6 6
6 5 5 5 4 4 3 3 2 2 2 2 2 2 3 3 2 2 2 3 3 3 3 3 3 3 3 3 4 4 2 1 1 0 1 1 1 3 3 4 5 5 6
6 5 4 5 5 4 3 3 2 2 2 2 1 2 3 3 2 2 2 2 3 3 3 3 3 3 3 3 3 3 2 2 1 1 0 1 1 1 2 3 4 5 6
6 6 5 5 4 4 3 3 3 2 2 1 1 1 2 2 2 2 2 2 3 3 3 3 3 2 3 4 3 2 2 2 2 2 1 1 1 1 1 2 3 4 5
5 5 5 4 4 4 3 2 2 2 1 1 1 1 1 2 2 2 2 3 3 2 3 3 3 3 2 2 3 3 2 2 2 1 1 1 1 0 1 1 1 2 4
4 4 4 4 3 3 2 2 2 1 0 1 1 0 1 1 2 2 2 2 2 2 2 3 2 3 3 2 3 3 4 3 3 2 2 1 1 1 1 1 1 1 1
3 3 3 3 3 2 2 1 2 1 0 0 1 1 1 1 1 1 1 1 1 2 3 3 2 2 2 3 2 2 4 5 4 3 2 1 1 1 1 0 0 1 1
3 3 3 3 3 2 2 2 2 3 3 2 2 2 2 1 1 1 1 1 1 1 1 2 2 2 2 2 1 2 2 1 3 4 3 2 2 1 1 1 0 1 1
3 3 4 4 3 3 3 3 3 2 1 1 1 1 2 2 1 1 1 0 0 1 1 2 1 0 1 1 2 1 1 2 1 2 4 3 2 2 1 0 0 0 1
4 4 4 5 4 4 4 4 3 2 0 1 1 2 2 2 2 2 1 0 1 1 1 1 1 1 0 1 0 1 1 1 1 1 2 3 3 2 2 1 0 0 1
4 5 5 5 4 3 4 4 3 2 2 2 2 2 2 2 2 3 1 1 1 1 1 1 1 0 0 0 0 0 1 0 1 1 1 2 2 2 2 1 0 1 1
Wind_Direction
122 132 123 114 109 105 101 96 92 89 87 84 81 79 76 74 72 70 69 67 65 62 60 59 57 56 56 55 52 49 47 47 45 44 44 50 55 65 66 63 55 50 57
137 129 123 119 114 108 103 98 94 89 87 83 79 77 74 71 68 66 64 61 58 58 56 54 51 52 49 47 44 40 38 36 31 30 34 49 62 73 75 69 61 60 61
127 124 121 119 113 108 104 99 95 90 87 83 79 75 72 68 63 60 57 55 53 51 48 44 42 45 44 40 34 29 27 24 18 19 22 30 72 81 82 75 69 66 64
128 125 122 119 113 109 105 100 97 93 89 84 80 75 70 65 61 56 53 50 48 44 42 38 35 36 34 30 23 16 14 12 11 19 21 350 41 96 92 81 76 72 68
123 121 125 120 116 111 107 102 98 95 90 85 80 75 70 64 59 54 49 46 43 39 37 34 28 24 20 16 10 1 359 1 8 19 19 1 12 113 102 88 80 77 73
124 123 128 124 120 116 111 106 102 98 93 88 82 77 70 62 56 51 46 42 37 32 27 25 14 9 6 0 353 346 345 348 3 15 9 326 211 129 109 97 89 83 73
130 130 132 130 127 124 120 115 110 105 98 92 85 77 68 59 54 48 41 37 32 24 17 11 1 353 350 342 335 331 331 334 348 6 353 311 214 150 121 106 97 94 83
139 140 139 139 136 134 131 128 126 121 112 102 94 79 63 48 35 16 5 8 8 8 2 356 347 337 333 326 320 318 318 319 337 352 328 283 211 164 135 119 104 101 99
143 143 145 150 146 146 144 143 141 139 137 134 126 16 342 334 313 297 292 299 319 332 332 331 328 326 319 313 310 309 307 308 321 313 302 277 206 172 152 137 119 113 114
146 152 157 157 155 153 156 158 156 157 167 185 236 284 308 325 321 294 276 276 290 309 313 315 315 315 312 308 304 303 301 308 312 304 284 255 216 190 169 151 137 126 125
156 170 171 170 174 174 184 187 174 179 211 263 306 309 328 339 327 307 282 279 293 308 313 315 312 310 311 310 306 303 307 299 281 278 250 245 226 197 176 162 152 142 137
168 178 180 182 187 193 200 167 193 258 303 317 319 324 343 340 323 349 331 327 322 321 326 329 326 323 322 313 309 310 313 290 265 256 238 230 219 198 179 167 161 157 147
167 163 168 174 176 174 170 158 148 163 328 335 344 354 20 28 2 16 4 351 346 344 343 340 343 336 323 311 307 308 305 294 262 254 237 218 211 203 186 173 166 165 160
140 149 156 160 158 157 148 145 142 131 81 23 7 25 44 40 28 21 13 360 356 344 342 340 336 335 331 321 309 304 313 299 255 237 239 211 208 207 193 181 174 172 172
138 139 148 145 141 141 131 127 117 119 103 72 43 37 62 60 38 25 7 7 356 353 354 348 347 345 341 338 340 342 325 290 244 191 256 228 216 207 198 190 183 182 179
146 145 141 136 137 128 121 118 116 114 100 73 55 49 64 70 57 42 19 9 0 353 350 352 351 351 336 338 340 341 331 311 255 189 216 253 241 221 208 197 193 189 182
152 146 141 138 120 116 120 118 110 111 103 82 57 45 58 67 65 56 31 8 348 349 360 6 3 3 1 358 349 343 347 341 326 219 214 235 264 243 222 206 201 194 184
148 143 145 132 118 113 113 110 101 103 104 91 72 53 48 55 62 56 33 0 348 2 6 4 8 1 357 356 345 342 353 348 353 323 264 236 249 254 242 216 201 194 189
153 146 140 133 131 126 116 109 102 97 92 87 70 61 45 42 48 58 32 350 359 12 6 0 11 4 353 347 336 348 358 357 345 3 357 301 265 239 233 231 211 192 190
151 144 142 137 137 124 102 90 75 60 45 48 60 48 59 41 46 50 30 7 13 18 5 4 0 359 349 339 348 1 356 352 360 357 344 344 1 11 184 212 218 210 194
117 130 140 142 149 126 100 107 105 93 339 354 322 6 44 40 43 47 25 12 17 25 359 358 4 3 354 358 24 359 352 1 15 1 353 3 2 5 81 147 173 177 196
109 117 127 143 146 136 132 145 148 142 182 258 316 342 334 9 20 43 41 13 9 21 6 3 17 12 354 18 54 41 2 352 351 357 354 358 353 6 30 68 126 156 176
98 116 128 129 132 129 115 89 69 52 28 11 354 334 315 312 341 22 34 38 17 50 358 342 9 46 3 352 46 107 95 311 319 334 344 351 356 4 355 27 66 176 173
91 91 90 98 102 102 95 92 109 112 125 267 274 298 310 318 331 358 9 31 8 23 346 324 19 58 83 355 347 24 168 182 173 329 329 338 342 345 335 357 58 212 172
91 87 87 86 77 79 87 94 102 102 166 301 341 1 339 329 332 336 338 353 324 326 320 334 350 16 115 146 323 332 15 39 142 158 302 326 338 328 322 310 211 216 188
78 82 83 81 68 68 76 76 95 99 77 46 14 9 346 331 327 328 325 322 303 300 298 296 312 321 275 180 204 164 158 182 233 184 228 284 303 306 317 317 274 202 211